Location: Huppendorf
(49.9333°N, 11.1500°E)
Time: 20:32:30
(UTC+00:00)

STARLINK-30 - Pass Details

Date: 27 February 2020
Orbit: 529 x 530 km, 53.0° (Epoch: 03 April)

Event Time Altitude Azimuth Distance (km) Brightness Sun altitude
Rises 17:54:43 0° 273° (W) 2,667 9.4 -10.6°
Reaches altitude 10° 17:56:58 10° 278° (W) 1,778 7.8 -11.0°
Maximum altitude 18:00:56 54° 356° (N) 648 4.0 -11.6°
Enters shadow 18:03:52 17° 71° (ENE) 1,386 5.1 -12.1°
